TimeCDT,TemperatureF,Dew PointF,Humidity,Sea Level PressureIn,VisibilityMPH,Wind Direction,Wind SpeedMPH,Gust SpeedMPH,PrecipitationIn,Events,Conditions,WindDirDegrees,DateUTC
12:52 AM,25.0,21.9,88,30.30,10.0,ENE,4.6,-,N/A,,Clear,70,2012-03-25 05:52:00
1:52 AM,23.0,21.0,92,30.30,9.0,East,4.6,-,N/A,,Clear,100,2012-03-25 06:52:00
2:52 AM,26.1,23.0,88,30.31,10.0,Calm,Calm,-,N/A,,Clear,0,2012-03-25 07:52:00
3:52 AM,26.6,24.8,93,30.24,10.0,NE,5.8,-,N/A,,Scattered Clouds,50,2012-03-25 08:52:00
3:56 AM,26.6,24.8,93,30.24,10.0,NE,5.8,-,N/A,,Mostly Cloudy,50,2012-03-25 08:56:00
4:52 AM,28.0,26.1,92,30.28,10.0,East,3.5,-,N/A,,Overcast,80,2012-03-25 09:52:00
5:52 AM,28.0,26.1,92,30.29,10.0,ENE,8.1,-,N/A,,Overcast,70,2012-03-25 10:52:00
6:39 AM,26.6,26.6,100,30.24,7.0,ENE,6.9,-,N/A,,Overcast,70,2012-03-25 11:39:00
6:52 AM,28.4,26.6,93,30.24,9.0,ENE,8.1,-,N/A,,Overcast,70,2012-03-25 11:52:00
7:27 AM,28.4,26.6,93,30.24,9.0,ENE,6.9,-,N/A,,Overcast,60,2012-03-25 12:27:00
7:52 AM,30.0,28.0,92,30.29,9.0,ENE,8.1,-,N/A,,Overcast,70,2012-03-25 12:52:00
8:52 AM,28.9,28.0,96,30.32,9.0,East,11.5,-,N/A,,Overcast,80,2012-03-25 13:52:00
9:52 AM,30.9,28.0,89,30.31,10.0,East,11.5,-,N/A,,Overcast,100,2012-03-25 14:52:00
10:52 AM,32.0,28.0,85,30.32,10.0,East,12.7,-,N/A,,Overcast,90,2012-03-25 15:52:00
11:52 AM,35.1,28.0,76,30.31,10.0,East,11.5,-,N/A,,Overcast,90,2012-03-25 16:52:00
12:24 PM,35.6,28.4,75,30.23,10.0,East,18.4,-,N/A,,Overcast,80,2012-03-25 17:24:00
12:52 PM,39.0,28.9,67,30.29,10.0,ESE,13.8,-,N/A,,Mostly Cloudy,110,2012-03-25 17:52:00
1:05 PM,39.2,28.4,65,30.23,10.0,ENE,13.8,20.7,N/A,,Mostly Cloudy,70,2012-03-25 18:05:00
1:52 PM,41.0,28.9,62,30.27,10.0,ESE,12.7,-,N/A,,Overcast,110,2012-03-25 18:52:00
2:52 PM,41.0,27.0,57,30.25,10.0,East,13.8,-,N/A,,Overcast,90,2012-03-25 19:52:00
3:52 PM,42.1,26.1,53,30.24,10.0,East,17.3,-,N/A,,Overcast,80,2012-03-25 20:52:00
4:52 PM,41.0,26.1,55,30.23,10.0,East,15.0,23.0,N/A,,Overcast,100,2012-03-25 21:52:00
5:52 PM,41.0,26.1,55,30.22,10.0,East,18.4,23.0,N/A,,Overcast,90,2012-03-25 22:52:00
6:52 PM,41.0,26.1,55,30.20,10.0,ESE,19.6,-,N/A,,Overcast,110,2012-03-25 23:52:00
7:52 PM,39.9,27.0,60,30.20,10.0,ESE,17.3,-,N/A,,Overcast,110,2012-03-26 00:52:00
8:52 PM,39.0,27.0,62,30.22,10.0,ESE,16.1,-,N/A,,Overcast,110,2012-03-26 01:52:00
9:52 PM,37.9,27.0,65,30.22,10.0,ESE,15.0,-,N/A,,Overcast,110,2012-03-26 02:52:00
10:52 PM,37.9,27.0,65,30.21,10.0,ESE,10.4,-,N/A,,Overcast,110,2012-03-26 03:52:00
11:52 PM,37.9,28.0,68,30.19,10.0,ESE,16.1,-,N/A,,Overcast,110,2012-03-26 04:52:00